Time,TemperatureF,DewpointF,PressureIn,WindDirection,WindDirectionDegrees,WindSpeedMPH,WindSpeedGustMPH,Humidity,HourlyPrecipIn,Conditions,Clouds,dailyrainin,SoftwareType,DateUTC
2013-04-26 00:02:00,47.2,42.0,30.33,ENE,57,14.0,15.0,82,0.00,,,0.00,Wunderground v.1.15,2013-04-26 05:02:00,
2013-04-26 00:08:00,47.4,41.9,30.34,ENE,59,14.0,15.0,81,0.00,,,0.00,Wunderground v.1.15,2013-04-26 05:08:00,
2013-04-26 00:14:00,47.5,42.0,30.34,ENE,61,14.0,14.0,81,0.00,,,0.00,Wunderground v.1.15,2013-04-26 05:14:00,
2013-04-26 00:19:00,47.5,42.6,30.34,ENE,61,14.0,14.0,83,0.00,,,0.00,Wunderground v.1.15,2013-04-26 05:19:00,
2013-04-26 00:25:00,47.5,42.9,30.34,ENE,61,13.0,14.0,84,0.00,,,0.00,Wunderground v.1.15,2013-04-26 05:25:00,
2013-04-26 00:31:00,47.4,42.5,30.35,ENE,63,15.0,15.0,83,0.00,,,0.00,Wunderground v.1.15,2013-04-26 05:31:00,
2013-04-26 00:36:00,47.2,42.0,30.35,ENE,59,16.0,16.0,82,0.00,,,0.00,Wunderground v.1.15,2013-04-26 05:36:00,
2013-04-26 00:42:00,47.0,42.4,30.34,ENE,60,17.0,17.0,84,0.00,,,0.00,Wunderground v.1.15,2013-04-26 05:42:00,
2013-04-26 00:48:00,46.9,42.3,30.34,ENE,61,16.0,17.0,84,0.00,,,0.00,Wunderground v.1.15,2013-04-26 05:48:00,
2013-04-26 00:54:00,46.7,42.1,30.34,ENE,61,16.0,17.0,84,0.00,,,0.00,Wunderground v.1.15,2013-04-26 05:54:00,
2013-04-26 00:59:00,46.6,42.3,30.34,ENE,64,15.0,17.0,85,0.00,,,0.00,Wunderground v.1.15,2013-04-26 05:59:00,
2013-04-26 01:05:00,46.4,41.8,30.34,ENE,64,14.0,16.0,84,0.00,,,0.00,Wunderground v.1.15,2013-04-26 06:05:00,
2013-04-26 01:11:00,46.4,42.1,30.34,West,279,11.0,14.0,85,0.00,,,0.00,Wunderground v.1.15,2013-04-26 06:11:00,
2013-04-26 01:17:00,46.3,41.7,30.34,ENE,69,11.0,14.0,84,0.00,,,0.00,Wunderground v.1.15,2013-04-26 06:17:00,
2013-04-26 01:23:00,46.3,42.0,30.34,ENE,73,10.0,12.0,85,0.00,,,0.00,Wunderground v.1.15,2013-04-26 06:23:00,
2013-04-26 01:29:00,46.2,41.6,30.34,ENE,69,10.0,12.0,84,0.00,,,0.00,Wunderground v.1.15,2013-04-26 06:29:00,
2013-04-26 01:35:00,46.2,41.9,30.34,East,81,9.0,11.0,85,0.00,,,0.00,Wunderground v.1.15,2013-04-26 06:35:00,
2013-04-26 01:41:00,46.1,41.8,30.33,West,279,10.0,10.0,85,0.00,,,0.00,Wunderground v.1.15,2013-04-26 06:41:00,
2013-04-26 01:46:00,46.0,41.7,30.34,ENE,67,11.0,12.0,85,0.00,,,0.00,Wunderground v.1.15,2013-04-26 06:46:00,
2013-04-26 01:52:00,45.9,41.9,30.34,ENE,67,12.0,13.0,86,0.00,,,0.00,Wunderground v.1.15,2013-04-26 06:52:00,
2013-04-26 01:58:00,45.8,41.9,30.34,ENE,69,12.0,13.0,86,0.00,,,0.00,Wunderground v.1.15,2013-04-26 06:58:00,
2013-04-26 02:03:00,45.8,41.9,30.33,ENE,65,14.0,14.0,86,0.00,,,0.00,Wunderground v.1.15,2013-04-26 07:03:00,
2013-04-26 02:08:00,45.8,41.9,30.33,ENE,67,12.0,14.0,86,0.00,,,0.00,Wunderground v.1.15,2013-04-26 07:08:00,
2013-04-26 02:13:00,45.8,42.2,30.34,ENE,72,11.0,13.0,87,0.00,,,0.00,Wunderground v.1.15,2013-04-26 07:13:00,
2013-04-26 02:18:00,45.7,41.8,30.34,ENE,69,12.0,13.0,86,0.00,,,0.00,Wunderground v.1.15,2013-04-26 07:18:00,
2013-04-26 02:23:00,45.7,41.8,30.34,ENE,70,11.0,12.0,86,0.00,,,0.00,Wunderground v.1.15,2013-04-26 07:23:00,
2013-04-26 02:28:00,45.7,41.8,30.34,ENE,74,11.0,12.0,86,0.00,,,0.00,Wunderground v.1.15,2013-04-26 07:28:00,
2013-04-26 02:33:00,45.6,42.0,30.34,ENE,70,12.0,12.0,87,0.00,,,0.00,Wunderground v.1.15,2013-04-26 07:33:00,
2013-04-26 02:38:00,45.6,42.3,30.33,ENE,67,13.0,14.0,88,0.00,,,0.00,Wunderground v.1.15,2013-04-26 07:38:00,
2013-04-26 02:43:00,45.5,42.2,30.33,ENE,65,14.0,16.0,88,0.00,,,0.00,Wunderground v.1.15,2013-04-26 07:43:00,
2013-04-26 02:48:00,45.5,41.9,30.33,ENE,65,16.0,16.0,87,0.00,,,0.00,Wunderground v.1.15,2013-04-26 07:48:00,
2013-04-26 02:53:00,45.4,42.1,30.33,ENE,69,14.0,15.0,88,0.00,,,0.00,Wunderground v.1.15,2013-04-26 07:53:00,
2013-04-26 02:58:00,45.4,42.1,30.33,ENE,69,13.0,15.0,88,0.00,,,0.00,Wunderground v.1.15,2013-04-26 07:58:00,
2013-04-26 03:03:00,45.4,41.8,30.33,ENE,73,13.0,14.0,87,0.00,,,0.00,Wunderground v.1.15,2013-04-26 08:03:00,
2013-04-26 03:08:00,45.4,41.8,30.32,West,279,13.0,15.0,87,0.00,,,0.00,Wunderground v.1.15,2013-04-26 08:08:00,
2013-04-26 03:13:00,45.3,41.7,30.33,ENE,69,14.0,15.0,87,0.00,,,0.00,Wunderground v.1.15,2013-04-26 08:13:00,
2013-04-26 03:18:00,45.1,41.5,30.33,West,279,13.0,15.0,87,0.00,,,0.00,Wunderground v.1.15,2013-04-26 08:18:00,
2013-04-26 03:23:00,45.1,41.8,30.33,ENE,66,14.0,15.0,88,0.00,,,0.00,Wunderground v.1.15,2013-04-26 08:23:00,
2013-04-26 03:28:00,44.9,41.6,30.33,ENE,65,14.0,16.0,88,0.00,,,0.00,Wunderground v.1.15,2013-04-26 08:28:00,
2013-04-26 03:33:00,44.9,41.6,30.33,West,279,13.0,15.0,88,0.00,,,0.00,Wunderground v.1.15,2013-04-26 08:33:00,
2013-04-26 03:38:00,44.9,41.3,30.33,ENE,65,14.0,15.0,87,0.00,,,0.00,Wunderground v.1.15,2013-04-26 08:38:00,
2013-04-26 03:43:00,45.0,41.7,30.34,ENE,66,13.0,15.0,88,0.00,,,0.00,Wunderground v.1.15,2013-04-26 08:43:00,
2013-04-26 03:48:00,45.1,42.1,30.34,ENE,63,15.0,17.0,89,0.00,,,0.00,Wunderground v.1.15,2013-04-26 08:48:00,
2013-04-26 03:53:00,45.2,42.2,30.33,West,279,14.0,15.0,89,0.00,,,0.00,Wunderground v.1.15,2013-04-26 08:53:00,
2013-04-26 03:58:00,45.3,42.2,30.33,ENE,61,15.0,15.0,89,0.00,,,0.00,Wunderground v.1.15,2013-04-26 08:58:00,
2013-04-26 04:03:00,45.5,42.4,30.33,ENE,61,14.0,15.0,89,0.00,,,0.00,Wunderground v.1.15,2013-04-26 09:03:00,
2013-04-26 04:08:00,45.7,42.6,30.33,ENE,64,13.0,15.0,89,0.00,,,0.00,Wunderground v.1.15,2013-04-26 09:08:00,
2013-04-26 04:13:00,45.9,42.8,30.34,ENE,62,13.0,15.0,89,0.00,,,0.00,Wunderground v.1.15,2013-04-26 09:13:00,
2013-04-26 04:18:00,46.1,42.7,30.34,ENE,63,13.0,16.0,88,0.00,,,0.00,Wunderground v.1.15,2013-04-26 09:18:00,
2013-04-26 04:23:00,46.3,42.9,30.34,ENE,65,13.0,14.0,88,0.00,,,0.00,Wunderground v.1.15,2013-04-26 09:23:00,
2013-04-26 04:28:00,46.4,43.0,30.33,West,279,12.0,14.0,88,0.00,,,0.00,Wunderground v.1.15,2013-04-26 09:28:00,
2013-04-26 04:33:00,46.5,43.4,30.33,ENE,65,13.0,14.0,89,0.00,,,0.00,Wunderground v.1.15,2013-04-26 09:33:00,
2013-04-26 04:38:00,46.5,42.8,30.33,ENE,66,13.0,14.0,87,0.00,,,0.00,Wunderground v.1.15,2013-04-26 09:38:00,
2013-04-26 04:43:00,46.6,42.9,30.33,ENE,65,12.0,14.0,87,0.00,,,0.00,Wunderground v.1.15,2013-04-26 09:43:00,
2013-04-26 04:48:00,46.6,42.9,30.34,ENE,67,12.0,14.0,87,0.00,,,0.00,Wunderground v.1.15,2013-04-26 09:48:00,
2013-04-26 04:53:00,46.6,42.9,30.33,ENE,68,11.0,13.0,87,0.00,,,0.00,Wunderground v.1.15,2013-04-26 09:53:00,
2013-04-26 04:58:00,46.5,42.8,30.33,ENE,70,11.0,13.0,87,0.00,,,0.00,Wunderground v.1.15,2013-04-26 09:58:00,
2013-04-26 05:03:00,46.4,42.7,30.33,ENE,68,13.0,14.0,87,0.00,,,0.00,Wunderground v.1.15,2013-04-26 10:03:00,
2013-04-26 05:08:00,46.2,42.8,30.34,ENE,69,13.0,14.0,88,0.00,,,0.00,Wunderground v.1.15,2013-04-26 10:08:00,
2013-04-26 05:13:00,46.1,42.4,30.33,ENE,71,13.0,15.0,87,0.00,,,0.00,Wunderground v.1.15,2013-04-26 10:13:00,
2013-04-26 05:18:00,46.0,42.6,30.33,East,80,12.0,15.0,88,0.00,,,0.00,Wunderground v.1.15,2013-04-26 10:18:00,
2013-04-26 05:23:00,45.8,42.2,30.33,ENE,70,15.0,15.0,87,0.00,,,0.00,Wunderground v.1.15,2013-04-26 10:23:00,
2013-04-26 05:28:00,45.4,42.1,30.32,ENE,66,14.0,16.0,88,0.00,,,0.00,Wunderground v.1.15,2013-04-26 10:28:00,
2013-04-26 05:33:00,45.1,42.1,30.32,ENE,65,15.0,17.0,89,0.00,,,0.00,Wunderground v.1.15,2013-04-26 10:33:00,
2013-04-26 05:38:00,45.0,42.0,30.31,West,279,17.0,17.0,89,0.00,,,0.00,Wunderground v.1.15,2013-04-26 10:38:00,
2013-04-26 05:43:00,45.0,42.2,30.31,ENE,72,17.0,17.0,90,0.00,,,0.00,Wunderground v.1.15,2013-04-26 10:43:00,
2013-04-26 05:48:00,45.0,42.2,30.30,ENE,69,18.0,19.0,90,0.00,,,0.00,Wunderground v.1.15,2013-04-26 10:48:00,
2013-04-26 05:53:00,45.1,42.3,30.30,ENE,68,15.0,19.0,90,0.00,,,0.00,Wunderground v.1.15,2013-04-26 10:53:00,
2013-04-26 05:58:00,45.1,42.1,30.31,ENE,72,15.0,19.0,89,0.00,,,0.00,Wunderground v.1.15,2013-04-26 10:58:00,
2013-04-26 06:03:00,45.3,42.2,30.31,ENE,67,13.0,16.0,89,0.00,,,0.00,Wunderground v.1.15,2013-04-26 11:03:00,
2013-04-26 06:08:00,45.5,42.7,30.30,ENE,74,14.0,16.0,90,0.00,,,0.00,Wunderground v.1.15,2013-04-26 11:08:00,
2013-04-26 06:13:00,45.6,42.8,30.30,West,279,19.0,20.0,90,0.00,,,0.00,Wunderground v.1.15,2013-04-26 11:13:00,
2013-04-26 06:18:00,45.8,42.4,30.30,ENE,61,17.0,20.0,88,0.00,,,0.00,Wunderground v.1.15,2013-04-26 11:18:00,
2013-04-26 06:23:00,46.0,42.3,30.30,West,279,16.0,19.0,87,0.00,,,0.00,Wunderground v.1.15,2013-04-26 11:23:00,
2013-04-26 06:28:00,46.3,42.6,30.28,ENE,68,16.0,19.0,87,0.00,,,0.00,Wunderground v.1.15,2013-04-26 11:28:00,
2013-04-26 06:33:00,46.7,42.7,30.29,West,279,16.0,18.0,86,0.00,,,0.00,Wunderground v.1.15,2013-04-26 11:33:00,
2013-04-26 06:38:00,46.9,42.6,30.30,ENE,72,11.0,19.0,85,0.00,,,0.00,Wunderground v.1.15,2013-04-26 11:38:00,
2013-04-26 06:43:00,47.3,43.0,30.30,ENE,69,13.0,15.0,85,0.00,,,0.00,Wunderground v.1.15,2013-04-26 11:43:00,
2013-04-26 06:48:00,47.5,43.5,30.31,ENE,66,13.0,16.0,86,0.00,,,0.00,Wunderground v.1.15,2013-04-26 11:48:00,
2013-04-26 06:53:00,47.8,43.5,30.31,ENE,67,13.0,17.0,85,0.00,,,0.00,Wunderground v.1.15,2013-04-26 11:53:00,
2013-04-26 06:58:00,47.9,42.7,30.32,West,279,9.0,17.0,82,0.00,,,0.00,Wunderground v.1.15,2013-04-26 11:58:00,
2013-04-26 07:03:00,48.2,43.6,30.32,ENE,78,10.0,14.0,84,0.00,,,0.00,Wunderground v.1.15,2013-04-26 12:03:00,
2013-04-26 07:08:00,48.5,43.9,30.33,ENE,75,9.0,15.0,84,0.00,,,0.00,Wunderground v.1.15,2013-04-26 12:08:00,
2013-04-26 07:13:00,48.7,43.5,30.34,East,79,7.0,11.0,82,0.00,,,0.00,Wunderground v.1.15,2013-04-26 12:13:00,
2013-04-26 07:18:00,48.9,44.3,30.35,ENE,68,6.0,11.0,84,0.00,,,0.00,Wunderground v.1.15,2013-04-26 12:18:00,
2013-04-26 07:23:00,49.1,44.2,30.35,ENE,74,9.0,10.0,83,0.00,,,0.00,Wunderground v.1.15,2013-04-26 12:23:00,
2013-04-26 07:28:00,49.3,43.7,30.35,ENE,77,7.0,10.0,81,0.00,,,0.00,Wunderground v.1.15,2013-04-26 12:28:00,
2013-04-26 07:33:00,49.6,43.0,30.35,West,279,3.0,6.0,78,0.00,,,0.00,Wunderground v.1.15,2013-04-26 12:33:00,
2013-04-26 07:38:00,49.9,43.3,30.36,East,80,1.0,6.0,78,0.00,,,0.00,Wunderground v.1.15,2013-04-26 12:38:00,
2013-04-26 07:43:00,50.1,43.5,30.36,East,82,1.0,4.0,78,0.00,,,0.00,Wunderground v.1.15,2013-04-26 12:43:00,
2013-04-26 07:48:00,50.3,43.4,30.36,ENE,78,0.0,4.0,77,0.00,,,0.00,Wunderground v.1.15,2013-04-26 12:48:00,
2013-04-26 07:53:00,50.5,43.6,30.37,East,80,3.0,4.0,77,0.00,,,0.00,Wunderground v.1.15,2013-04-26 12:53:00,
2013-04-26 07:58:00,50.6,43.0,30.37,ENE,73,3.0,4.0,75,0.00,,,0.00,Wunderground v.1.15,2013-04-26 12:58:00,
2013-04-26 08:03:00,50.7,43.4,30.37,ENE,70,2.0,3.0,76,0.00,,,0.00,Wunderground v.1.15,2013-04-26 13:03:00,
2013-04-26 08:08:00,50.8,43.5,30.38,West,279,0.0,4.0,76,0.00,,,0.00,Wunderground v.1.15,2013-04-26 13:08:00,
2013-04-26 08:13:00,50.9,44.3,30.38,East,80,0.0,3.0,78,0.00,,,0.00,Wunderground v.1.15,2013-04-26 13:13:00,
2013-04-26 08:18:00,50.9,43.9,30.38,East,90,3.0,4.0,77,0.00,,,0.00,Wunderground v.1.15,2013-04-26 13:18:00,
2013-04-26 08:23:00,50.8,43.5,30.38,ESE,123,6.0,9.0,76,0.00,,,0.00,Wunderground v.1.15,2013-04-26 13:23:00,
2013-04-26 08:28:00,50.8,43.2,30.39,SE,126,10.0,10.0,75,0.00,,,0.00,Wunderground v.1.15,2013-04-26 13:28:00,
2013-04-26 08:33:00,50.8,43.2,30.40,SE,133,10.0,11.0,75,0.00,,,0.00,Wunderground v.1.15,2013-04-26 13:33:00,
2013-04-26 08:38:00,50.9,42.9,30.40,West,279,7.0,12.0,74,0.00,,,0.00,Wunderground v.1.15,2013-04-26 13:38:00,
2013-04-26 08:43:00,51.0,43.0,30.40,ESE,120,5.0,10.0,74,0.00,,,0.00,Wunderground v.1.15,2013-04-26 13:43:00,
2013-04-26 08:48:00,51.1,43.8,30.40,West,279,4.0,10.0,76,0.00,,,0.00,Wunderground v.1.15,2013-04-26 13:48:00,
2013-04-26 08:53:00,51.2,43.9,30.39,ESE,108,3.0,6.0,76,0.00,,,0.00,Wunderground v.1.15,2013-04-26 13:53:00,
2013-04-26 08:58:00,51.2,43.2,30.40,ESE,106,1.0,6.0,74,0.00,,,0.00,Wunderground v.1.15,2013-04-26 13:58:00,
2013-04-26 09:03:00,51.3,42.9,30.40,East,81,5.0,6.0,73,0.00,,,0.00,Wunderground v.1.15,2013-04-26 14:03:00,
2013-04-26 09:08:00,51.3,44.3,30.40,ENE,71,5.0,7.0,77,0.00,,,0.00,Wunderground v.1.15,2013-04-26 14:08:00,
2013-04-26 09:13:00,51.3,43.3,30.40,ENE,73,6.0,9.0,74,0.00,,,0.00,Wunderground v.1.15,2013-04-26 14:13:00,
2013-04-26 09:18:00,51.4,43.7,30.39,West,279,6.0,9.0,75,0.00,,,0.00,Wunderground v.1.15,2013-04-26 14:18:00,
2013-04-26 09:23:00,51.4,43.7,30.40,ENE,66,6.0,9.0,75,0.00,,,0.00,Wunderground v.1.15,2013-04-26 14:23:00,
2013-04-26 09:28:00,51.5,43.8,30.42,SE,143,5.0,9.0,75,0.00,,,0.00,Wunderground v.1.15,2013-04-26 14:28:00,
2013-04-26 09:33:00,51.5,43.8,30.43,SE,143,7.0,10.0,75,0.00,,,0.00,Wunderground v.1.15,2013-04-26 14:33:00,
2013-04-26 09:38:00,51.6,44.3,30.42,SE,129,6.0,10.0,76,0.00,,,0.00,Wunderground v.1.15,2013-04-26 14:38:00,
2013-04-26 09:43:00,51.7,44.0,30.42,SE,126,6.0,6.0,75,0.00,,,0.00,Wunderground v.1.15,2013-04-26 14:43:00,
2013-04-26 09:48:00,51.8,43.4,30.42,SE,125,5.0,9.0,73,0.00,,,0.00,Wunderground v.1.15,2013-04-26 14:48:00,
2013-04-26 09:53:00,51.8,43.8,30.43,SE,126,6.0,10.0,74,0.00,,,0.00,Wunderground v.1.15,2013-04-26 14:53:00,
2013-04-26 09:58:00,51.9,44.6,30.43,SE,131,4.0,10.0,76,0.00,,,0.00,Wunderground v.1.15,2013-04-26 14:58:00,
2013-04-26 10:03:00,51.9,44.2,30.42,SE,132,6.0,6.0,75,0.00,,,0.00,Wunderground v.1.15,2013-04-26 15:03:00,
2013-04-26 10:08:00,52.0,45.0,30.42,ESE,120,6.0,6.0,77,0.00,,,0.00,Wunderground v.1.15,2013-04-26 15:08:00,
2013-04-26 10:13:00,52.0,45.0,30.42,SE,128,6.0,7.0,77,0.00,,,0.00,Wunderground v.1.15,2013-04-26 15:13:00,
2013-04-26 10:19:00,52.0,44.7,30.42,ESE,121,6.0,10.0,76,0.00,,,0.00,Wunderground v.1.15,2013-04-26 15:19:00,
2013-04-26 10:23:00,52.0,44.7,30.42,ESE,122,5.0,8.0,76,0.00,,,0.00,Wunderground v.1.15,2013-04-26 15:23:00,
2013-04-26 10:28:00,52.0,46.0,30.42,ESE,119,3.0,8.0,80,0.00,,,0.00,Wunderground v.1.15,2013-04-26 15:28:00,
2013-04-26 10:33:00,52.0,46.3,30.42,ESE,120,2.0,7.0,81,0.00,,,0.00,Wunderground v.1.15,2013-04-26 15:33:00,
2013-04-26 10:39:00,51.9,46.6,30.41,West,279,9.0,9.0,82,0.00,,,0.00,Wunderground v.1.15,2013-04-26 15:39:00,
2013-04-26 10:43:00,51.7,46.4,30.41,West,279,1.0,11.0,82,0.00,,,0.00,Wunderground v.1.15,2013-04-26 15:43:00,
2013-04-26 10:48:00,51.6,46.6,30.41,West,279,5.0,11.0,83,0.00,,,0.00,Wunderground v.1.15,2013-04-26 15:48:00,
2013-04-26 10:54:00,51.5,47.5,30.41,West,279,3.0,7.0,86,0.00,,,0.01,Wunderground v.1.15,2013-04-26 15:54:00,
2013-04-26 10:59:00,51.3,47.3,30.41,ESE,105,5.0,7.0,86,0.00,,,0.01,Wunderground v.1.15,2013-04-26 15:59:00,
2013-04-26 11:04:00,51.0,47.3,30.41,East,99,3.0,9.0,87,0.06,,,0.02,Wunderground v.1.15,2013-04-26 16:04:00,
2013-04-26 11:09:00,50.9,47.5,30.41,West,279,1.0,9.0,88,0.06,,,0.02,Wunderground v.1.15,2013-04-26 16:09:00,
2013-04-26 11:13:00,50.8,47.4,30.41,West,279,2.0,6.0,88,0.04,,,0.03,Wunderground v.1.15,2013-04-26 16:13:00,
2013-04-26 11:18:00,50.6,46.9,30.40,West,279,3.0,6.0,87,0.04,,,0.03,Wunderground v.1.15,2013-04-26 16:18:00,
2013-04-26 11:23:00,50.6,47.5,30.39,East,86,2.0,8.0,89,0.04,,,0.03,Wunderground v.1.15,2013-04-26 16:23:00,
2013-04-26 11:29:00,50.6,47.5,30.39,ENE,71,6.0,8.0,89,0.05,,,0.04,Wunderground v.1.15,2013-04-26 16:29:00,
2013-04-26 11:34:00,50.7,47.9,30.39,ENE,68,5.0,8.0,90,0.05,,,0.04,Wunderground v.1.15,2013-04-26 16:34:00,
2013-04-26 11:39:00,50.8,48.3,30.39,ENE,73,5.0,8.0,91,0.04,,,0.04,Wunderground v.1.15,2013-04-26 16:39:00,
2013-04-26 11:44:00,50.9,48.1,30.38,ENE,64,8.0,10.0,90,0.00,,,0.04,Wunderground v.1.15,2013-04-26 16:44:00,
2013-04-26 11:49:00,51.0,48.2,30.39,ENE,66,3.0,10.0,90,0.00,,,0.05,Wunderground v.1.15,2013-04-26 16:49:00,
2013-04-26 11:54:00,51.1,48.0,30.39,West,279,2.0,6.0,89,0.00,,,0.05,Wunderground v.1.15,2013-04-26 16:54:00,
2013-04-26 11:59:00,51.2,48.4,30.40,SSW,204,3.0,6.0,90,0.00,,,0.05,Wunderground v.1.15,2013-04-26 16:59:00,
2013-04-26 12:04:00,51.3,48.5,30.41,SSW,209,4.0,5.0,90,0.00,,,0.05,Wunderground v.1.15,2013-04-26 17:04:00,
2013-04-26 12:08:00,51.3,48.5,30.41,WSW,243,5.0,6.0,90,0.00,,,0.05,Wunderground v.1.15,2013-04-26 17:08:00,
2013-04-26 12:13:00,51.3,48.5,30.41,SW,234,3.0,5.0,90,0.00,,,0.05,Wunderground v.1.15,2013-04-26 17:13:00,
2013-04-26 12:18:00,51.4,48.3,30.40,WSW,238,1.0,5.0,89,0.00,,,0.05,Wunderground v.1.15,2013-04-26 17:18:00,
2013-04-26 12:23:00,51.4,48.3,30.40,West,279,0.0,3.0,89,0.00,,,0.05,Wunderground v.1.15,2013-04-26 17:23:00,
2013-04-26 12:28:00,51.4,48.3,30.39,West,259,0.0,3.0,89,0.00,,,0.05,Wunderground v.1.15,2013-04-26 17:28:00,
2013-04-26 12:33:00,51.4,47.7,30.39,West,259,0.0,1.0,87,0.00,,,0.05,Wunderground v.1.15,2013-04-26 17:33:00,
2013-04-26 12:38:00,51.4,48.0,30.39,West,279,0.0,1.0,88,0.00,,,0.06,Wunderground v.1.15,2013-04-26 17:38:00,
2013-04-26 12:43:00,51.3,47.9,30.40,West,259,0.0,0.0,88,0.00,,,0.06,Wunderground v.1.15,2013-04-26 17:43:00,
2013-04-26 12:48:00,51.3,47.9,30.39,West,259,1.0,1.0,88,0.00,,,0.06,Wunderground v.1.15,2013-04-26 17:48:00,
2013-04-26 12:53:00,51.4,48.6,30.38,West,259,0.0,1.0,90,0.00,,,0.06,Wunderground v.1.15,2013-04-26 17:53:00,
2013-04-26 12:58:00,51.5,49.0,30.38,West,260,1.0,2.0,91,0.00,,,0.06,Wunderground v.1.15,2013-04-26 17:58:00,
2013-04-26 13:03:00,51.6,49.1,30.37,North,9,3.0,4.0,91,0.00,,,0.07,Wunderground v.1.15,2013-04-26 18:03:00,
2013-04-26 13:08:00,51.7,49.2,30.38,North,8,0.0,4.0,91,0.00,,,0.07,Wunderground v.1.15,2013-04-26 18:08:00,
2013-04-26 13:13:00,51.7,49.2,30.37,North,9,1.0,2.0,91,0.00,,,0.07,Wunderground v.1.15,2013-04-26 18:13:00,
2013-04-26 13:18:00,51.6,48.8,30.37,North,8,2.0,3.0,90,0.00,,,0.07,Wunderground v.1.15,2013-04-26 18:18:00,
2013-04-26 13:23:00,51.5,48.7,30.36,North,11,3.0,4.0,90,0.00,,,0.08,Wunderground v.1.15,2013-04-26 18:23:00,
2013-04-26 13:28:00,51.5,49.0,30.37,NNE,18,3.0,4.0,91,0.00,,,0.08,Wunderground v.1.15,2013-04-26 18:28:00,
2013-04-26 13:33:00,51.5,49.3,30.37,NNE,18,2.0,4.0,92,0.06,,,0.09,Wunderground v.1.15,2013-04-26 18:33:00,
2013-04-26 13:38:00,51.5,49.3,30.37,NNE,18,3.0,4.0,92,0.06,,,0.09,Wunderground v.1.15,2013-04-26 18:38:00,
2013-04-26 13:43:00,51.4,49.2,30.37,NNE,18,0.0,4.0,92,0.13,,,0.10,Wunderground v.1.15,2013-04-26 18:43:00,
2013-04-26 13:48:00,51.2,48.7,30.38,NNE,16,1.0,4.0,91,0.12,,,0.11,Wunderground v.1.15,2013-04-26 18:48:00,
2013-04-26 13:53:00,51.2,49.0,30.39,NNE,17,2.0,3.0,92,0.08,,,0.12,Wunderground v.1.15,2013-04-26 18:53:00,
2013-04-26 13:58:00,51.1,48.6,30.40,NNE,22,1.0,3.0,91,0.08,,,0.12,Wunderground v.1.15,2013-04-26 18:58:00,
2013-04-26 14:03:00,51.2,49.0,30.38,NNE,20,4.0,4.0,92,0.05,,,0.12,Wunderground v.1.15,2013-04-26 19:03:00,
2013-04-26 14:08:00,51.2,49.2,30.40,NNE,20,3.0,4.0,93,0.05,,,0.13,Wunderground v.1.15,2013-04-26 19:08:00,
2013-04-26 14:13:00,51.4,49.4,30.40,SE,144,4.0,7.0,93,0.05,,,0.13,Wunderground v.1.15,2013-04-26 19:13:00,
2013-04-26 14:18:00,51.4,49.4,30.39,West,279,3.0,7.0,93,0.04,,,0.13,Wunderground v.1.15,2013-04-26 19:18:00,
2013-04-26 14:23:00,51.4,49.4,30.39,SE,141,0.0,4.0,93,0.00,,,0.13,Wunderground v.1.15,2013-04-26 19:23:00,
2013-04-26 14:29:00,51.5,49.5,30.38,ENE,57,6.0,7.0,93,0.00,,,0.14,Wunderground v.1.15,2013-04-26 19:29:00,
2013-04-26 14:34:00,51.6,49.6,30.35,West,279,9.0,11.0,93,0.00,,,0.14,Wunderground v.1.15,2013-04-26 19:34:00,
2013-04-26 14:39:00,51.6,49.6,30.37,NE,52,4.0,11.0,93,0.00,,,0.14,Wunderground v.1.15,2013-04-26 19:39:00,
2013-04-26 14:44:00,51.6,49.6,30.42,South,173,15.0,20.0,93,0.00,,,0.14,Wunderground v.1.15,2013-04-26 19:44:00,
2013-04-26 14:49:00,51.6,49.4,30.42,West,279,16.0,20.0,92,0.00,,,0.14,Wunderground v.1.15,2013-04-26 19:49:00,
2013-04-26 14:54:00,51.5,49.3,30.41,West,279,12.0,15.0,92,0.00,,,0.14,Wunderground v.1.15,2013-04-26 19:54:00,
2013-04-26 14:59:00,51.5,49.3,30.42,SSW,199,4.0,15.0,92,0.00,,,0.14,Wunderground v.1.15,2013-04-26 19:59:00,
2013-04-26 15:04:00,51.4,49.2,30.42,West,279,4.0,9.0,92,0.00,,,0.14,Wunderground v.1.15,2013-04-26 20:04:00,
2013-04-26 15:09:00,51.4,49.2,30.41,South,176,2.0,9.0,92,0.00,,,0.14,Wunderground v.1.15,2013-04-26 20:09:00,
2013-04-26 15:14:00,51.4,49.2,30.41,West,279,3.0,6.0,92,0.00,,,0.15,Wunderground v.1.15,2013-04-26 20:14:00,
2013-04-26 15:19:00,51.3,49.1,30.41,West,279,5.0,6.0,92,0.00,,,0.15,Wunderground v.1.15,2013-04-26 20:19:00,
2013-04-26 15:24:00,51.3,49.3,30.41,SE,144,11.0,11.0,93,0.06,,,0.16,Wunderground v.1.15,2013-04-26 20:24:00,
2013-04-26 15:29:00,51.3,49.3,30.39,West,279,9.0,11.0,93,0.13,,,0.17,Wunderground v.1.15,2013-04-26 20:29:00,
2013-04-26 15:34:00,51.2,49.2,30.38,ESE,108,4.0,11.0,93,0.21,,,0.19,Wunderground v.1.15,2013-04-26 20:34:00,
2013-04-26 15:39:00,51.2,49.2,30.37,ESE,107,5.0,11.0,93,0.14,,,0.20,Wunderground v.1.15,2013-04-26 20:39:00,
2013-04-26 15:44:00,51.2,49.2,30.35,East,84,4.0,11.0,93,0.09,,,0.20,Wunderground v.1.15,2013-04-26 20:44:00,
2013-04-26 15:49:00,51.2,49.2,30.35,ESE,103,4.0,11.0,93,0.09,,,0.21,Wunderground v.1.15,2013-04-26 20:49:00,
2013-04-26 15:54:00,51.3,49.6,30.34,East,86,3.0,10.0,94,0.06,,,0.21,Wunderground v.1.15,2013-04-26 20:54:00,
2013-04-26 15:59:00,51.3,49.6,30.33,East,84,10.0,16.0,94,0.04,,,0.21,Wunderground v.1.15,2013-04-26 20:59:00,
2013-04-26 16:04:00,51.2,49.2,30.32,ENE,66,11.0,12.0,93,0.00,,,0.21,Wunderground v.1.15,2013-04-26 21:04:00,
2013-04-26 16:09:00,51.2,49.5,30.31,ENE,75,7.0,14.0,94,0.00,,,0.21,Wunderground v.1.15,2013-04-26 21:09:00,
2013-04-26 16:14:00,51.2,49.5,30.29,ENE,65,11.0,15.0,94,0.00,,,0.21,Wunderground v.1.15,2013-04-26 21:14:00,
2013-04-26 16:19:00,51.3,49.6,30.28,ENE,76,16.0,19.0,94,0.00,,,0.21,Wunderground v.1.15,2013-04-26 21:19:00,
2013-04-26 16:24:00,51.3,49.6,30.28,East,82,13.0,17.0,94,0.00,,,0.21,Wunderground v.1.15,2013-04-26 21:24:00,
2013-04-26 16:29:00,51.2,49.5,30.27,East,82,14.0,21.0,94,0.00,,,0.21,Wunderground v.1.15,2013-04-26 21:29:00,
2013-04-26 16:34:00,51.2,49.5,30.26,West,279,17.0,18.0,94,0.00,,,0.21,Wunderground v.1.15,2013-04-26 21:34:00,
2013-04-26 16:39:00,51.2,49.5,30.25,East,81,14.0,23.0,94,0.00,,,0.21,Wunderground v.1.15,2013-04-26 21:39:00,
2013-04-26 16:44:00,51.0,49.0,30.26,ENE,70,16.0,21.0,93,0.00,,,0.21,Wunderground v.1.15,2013-04-26 21:44:00,
2013-04-26 16:49:00,51.0,49.0,30.27,ENE,57,12.0,21.0,93,0.00,,,0.21,Wunderground v.1.15,2013-04-26 21:49:00,
2013-04-26 16:54:00,50.9,48.9,30.28,ENE,57,9.0,22.0,93,0.00,,,0.21,Wunderground v.1.15,2013-04-26 21:54:00,
2013-04-26 16:59:00,51.0,49.0,30.29,NE,53,10.0,22.0,93,0.00,,,0.21,Wunderground v.1.15,2013-04-26 21:59:00,
2013-04-26 17:04:00,51.0,49.0,30.29,ENE,57,10.0,15.0,93,0.00,,,0.21,Wunderground v.1.15,2013-04-26 22:04:00,
2013-04-26 17:09:00,51.1,49.1,30.28,NE,42,10.0,17.0,93,0.00,,,0.21,Wunderground v.1.15,2013-04-26 22:09:00,
2013-04-26 17:14:00,51.0,49.0,30.28,NE,42,11.0,14.0,93,0.00,,,0.21,Wunderground v.1.15,2013-04-26 22:14:00,
2013-04-26 17:19:00,51.0,49.0,30.29,NNE,25,7.0,14.0,93,0.00,,,0.21,Wunderground v.1.15,2013-04-26 22:19:00,
2013-04-26 17:24:00,51.0,49.0,30.29,NNE,33,13.0,14.0,93,0.00,,,0.21,Wunderground v.1.15,2013-04-26 22:24:00,
2013-04-26 17:29:00,51.0,49.0,30.30,NE,55,11.0,14.0,93,0.00,,,0.21,Wunderground v.1.15,2013-04-26 22:29:00,
2013-04-26 17:34:00,51.0,48.8,30.29,NE,36,12.0,17.0,92,0.00,,,0.21,Wunderground v.1.15,2013-04-26 22:34:00,
2013-04-26 17:39:00,51.0,48.8,30.26,ENE,58,18.0,20.0,92,0.00,,,0.21,Wunderground v.1.15,2013-04-26 22:39:00,
2013-04-26 17:44:00,50.9,48.7,30.28,NNE,23,13.0,21.0,92,0.00,,,0.21,Wunderground v.1.15,2013-04-26 22:44:00,
2013-04-26 17:49:00,50.9,48.7,30.29,NNE,22,10.0,21.0,92,0.00,,,0.21,Wunderground v.1.15,2013-04-26 22:49:00,
2013-04-26 17:54:00,51.0,49.0,30.29,NNE,18,7.0,13.0,93,0.00,,,0.21,Wunderground v.1.15,2013-04-26 22:54:00,
2013-04-26 17:59:00,51.1,49.1,30.28,NNE,27,10.0,14.0,93,0.00,,,0.21,Wunderground v.1.15,2013-04-26 22:59:00,
2013-04-26 18:04:00,51.2,49.2,30.28,NNE,22,11.0,13.0,93,0.00,,,0.21,Wunderground v.1.15,2013-04-26 23:04:00,
2013-04-26 18:09:00,51.2,49.2,30.28,NNE,25,12.0,15.0,93,0.00,,,0.21,Wunderground v.1.15,2013-04-26 23:09:00,
2013-04-26 18:14:00,51.3,49.3,30.29,NE,39,12.0,16.0,93,0.00,,,0.21,Wunderground v.1.15,2013-04-26 23:14:00,
2013-04-26 18:19:00,51.3,49.3,30.29,NNE,29,9.0,16.0,93,0.00,,,0.21,Wunderground v.1.15,2013-04-26 23:19:00,
2013-04-26 18:24:00,51.3,49.1,30.31,NNE,32,7.0,10.0,92,0.00,,,0.21,Wunderground v.1.15,2013-04-26 23:24:00,
2013-04-26 18:29:00,51.3,48.8,30.31,NE,51,6.0,11.0,91,0.00,,,0.21,Wunderground v.1.15,2013-04-26 23:29:00,
2013-04-26 18:34:00,51.2,49.0,30.31,NE,42,5.0,9.0,92,0.00,,,0.21,Wunderground v.1.15,2013-04-26 23:34:00,
2013-04-26 18:39:00,51.2,48.7,30.31,NE,50,7.0,9.0,91,0.00,,,0.21,Wunderground v.1.15,2013-04-26 23:39:00,
2013-04-26 18:44:00,51.2,49.0,30.30,NE,56,10.0,11.0,92,0.00,,,0.21,Wunderground v.1.15,2013-04-26 23:44:00,
2013-04-26 18:49:00,51.2,49.2,30.29,ENE,62,11.0,15.0,93,0.00,,,0.21,Wunderground v.1.15,2013-04-26 23:49:00,
2013-04-26 18:54:00,51.1,48.9,30.28,ENE,59,12.0,13.0,92,0.00,,,0.21,Wunderground v.1.15,2013-04-26 23:54:00,
2013-04-26 19:06:00,51.0,48.8,30.29,West,279,9.0,11.0,92,0.00,,,0.21,Wunderground v.1.15,2013-04-27 00:06:00,
2013-04-26 19:11:00,51.0,48.8,30.29,ENE,66,7.0,10.0,92,0.00,,,0.21,Wunderground v.1.15,2013-04-27 00:11:00,
2013-04-26 19:16:00,50.9,48.7,30.29,ENE,61,12.0,12.0,92,0.00,,,0.21,Wunderground v.1.15,2013-04-27 00:16:00,
2013-04-26 19:21:00,50.9,48.7,30.30,NE,45,10.0,10.0,92,0.00,,,0.21,Wunderground v.1.15,2013-04-27 00:21:00,
2013-04-26 19:26:00,50.9,48.9,30.31,West,279,7.0,10.0,93,0.00,,,0.21,Wunderground v.1.15,2013-04-27 00:26:00,
2013-04-26 19:31:00,50.8,48.6,30.31,NNE,33,6.0,8.0,92,0.00,,,0.21,Wunderground v.1.15,2013-04-27 00:31:00,
2013-04-26 19:36:00,50.8,48.8,30.31,NE,35,8.0,10.0,93,0.00,,,0.21,Wunderground v.1.15,2013-04-27 00:36:00,
2013-04-26 19:41:00,50.7,48.7,30.30,NE,46,9.0,10.0,93,0.00,,,0.21,Wunderground v.1.15,2013-04-27 00:41:00,
2013-04-26 19:46:00,50.6,48.7,30.29,NE,55,9.0,11.0,93,0.00,,,0.21,Wunderground v.1.15,2013-04-27 00:46:00,
2013-04-26 19:51:00,50.6,48.7,30.30,NE,54,9.0,11.0,93,0.00,,,0.21,Wunderground v.1.15,2013-04-27 00:51:00,
2013-04-26 19:56:00,50.5,48.6,30.30,ENE,58,8.0,11.0,93,0.00,,,0.21,Wunderground v.1.15,2013-04-27 00:56:00,
2013-04-26 20:01:00,50.5,48.6,30.30,ENE,62,7.0,10.0,93,0.00,,,0.21,Wunderground v.1.15,2013-04-27 01:01:00,
2013-04-26 20:06:00,50.5,48.6,30.31,ENE,62,3.0,10.0,93,0.00,,,0.21,Wunderground v.1.15,2013-04-27 01:06:00,
2013-04-26 20:11:00,50.5,48.6,30.31,West,279,5.0,7.0,93,0.00,,,0.21,Wunderground v.1.15,2013-04-27 01:11:00,
2013-04-26 20:16:00,50.5,48.6,30.30,ENE,71,9.0,12.0,93,0.00,,,0.21,Wunderground v.1.15,2013-04-27 01:16:00,
2013-04-26 20:21:00,50.4,48.5,30.30,East,79,7.0,10.0,93,0.00,,,0.21,Wunderground v.1.15,2013-04-27 01:21:00,
2013-04-26 20:26:00,50.4,48.5,30.29,ENE,69,10.0,11.0,93,0.00,,,0.22,Wunderground v.1.15,2013-04-27 01:26:00,
2013-04-26 20:31:00,50.4,48.7,30.30,ENE,74,6.0,9.0,94,0.00,,,0.22,Wunderground v.1.15,2013-04-27 01:31:00,
2013-04-26 20:36:00,50.4,48.7,30.30,ENE,74,6.0,11.0,94,0.05,,,0.23,Wunderground v.1.15,2013-04-27 01:36:00,
2013-04-26 20:41:00,50.3,48.6,30.31,ENE,71,6.0,9.0,94,0.05,,,0.23,Wunderground v.1.15,2013-04-27 01:41:00,
2013-04-26 20:46:00,50.3,48.6,30.31,ENE,70,7.0,10.0,94,0.05,,,0.23,Wunderground v.1.15,2013-04-27 01:46:00,
2013-04-26 20:51:00,50.3,48.6,30.31,ENE,77,3.0,9.0,94,0.04,,,0.23,Wunderground v.1.15,2013-04-27 01:51:00,
2013-04-26 20:56:00,50.3,48.6,30.31,West,279,5.0,9.0,94,0.00,,,0.23,Wunderground v.1.15,2013-04-27 01:56:00,
2013-04-26 21:01:00,50.3,48.6,30.31,West,279,3.0,7.0,94,0.00,,,0.23,Wunderground v.1.15,2013-04-27 02:01:00,
2013-04-26 21:06:00,50.2,48.5,30.32,ESE,113,5.0,7.0,94,0.00,,,0.23,Wunderground v.1.15,2013-04-27 02:06:00,
2013-04-26 21:11:00,50.2,48.5,30.32,ESE,104,5.0,5.0,94,0.00,,,0.23,Wunderground v.1.15,2013-04-27 02:11:00,
2013-04-26 21:16:00,50.2,48.5,30.33,West,279,5.0,8.0,94,0.00,,,0.23,Wunderground v.1.15,2013-04-27 02:16:00,
2013-04-26 21:21:00,50.2,48.5,30.33,West,279,2.0,6.0,94,0.00,,,0.24,Wunderground v.1.15,2013-04-27 02:21:00,
2013-04-26 21:26:00,50.3,48.6,30.32,East,87,1.0,6.0,94,0.00,,,0.24,Wunderground v.1.15,2013-04-27 02:26:00,
2013-04-26 21:31:00,50.2,48.5,30.32,East,88,1.0,3.0,94,0.00,,,0.24,Wunderground v.1.15,2013-04-27 02:31:00,
2013-04-26 21:36:00,50.2,48.5,30.31,West,279,2.0,5.0,94,0.05,,,0.25,Wunderground v.1.15,2013-04-27 02:36:00,
2013-04-26 21:41:00,50.1,48.4,30.29,East,84,6.0,13.0,94,0.25,,,0.27,Wunderground v.1.15,2013-04-27 02:41:00,
2013-04-26 21:46:00,50.1,48.4,30.28,East,84,1.0,15.0,94,0.37,,,0.30,Wunderground v.1.15,2013-04-27 02:46:00,
2013-04-26 21:51:00,50.0,48.3,30.30,East,101,4.0,10.0,94,0.43,,,0.34,Wunderground v.1.15,2013-04-27 02:51:00,
2013-04-26 21:56:00,49.9,48.2,30.31,ESE,111,7.0,15.0,94,0.28,,,0.37,Wunderground v.1.15,2013-04-27 02:56:00,
2013-04-26 22:01:00,49.9,48.2,30.31,West,279,4.0,9.0,94,0.11,,,0.37,Wunderground v.1.15,2013-04-27 03:01:00,
2013-04-26 22:06:00,49.9,48.2,30.31,East,85,2.0,11.0,94,0.06,,,0.37,Wunderground v.1.15,2013-04-27 03:06:00,
2013-04-26 22:11:00,49.7,48.0,30.31,West,279,2.0,9.0,94,0.04,,,0.37,Wunderground v.1.15,2013-04-27 03:11:00,
2013-04-26 22:16:00,49.7,48.0,30.30,East,84,3.0,10.0,94,0.04,,,0.38,Wunderground v.1.15,2013-04-27 03:16:00,
2013-04-26 22:21:00,49.7,48.0,30.30,East,82,7.0,11.0,94,0.04,,,0.38,Wunderground v.1.15,2013-04-27 03:21:00,
2013-04-26 22:26:00,49.6,47.9,30.30,East,85,5.0,13.0,94,0.04,,,0.38,Wunderground v.1.15,2013-04-27 03:26:00,
2013-04-26 22:31:00,49.6,48.2,30.30,ENE,72,10.0,11.0,95,0.00,,,0.38,Wunderground v.1.15,2013-04-27 03:31:00,
2013-04-26 22:36:00,49.5,48.1,30.29,ENE,69,13.0,14.0,95,0.00,,,0.38,Wunderground v.1.15,2013-04-27 03:36:00,
2013-04-26 22:41:00,49.5,48.1,30.29,ENE,65,11.0,15.0,95,0.00,,,0.38,Wunderground v.1.15,2013-04-27 03:41:00,
2013-04-26 22:46:00,49.5,48.1,30.28,ENE,67,12.0,15.0,95,0.00,,,0.38,Wunderground v.1.15,2013-04-27 03:46:00,
2013-04-26 22:51:00,49.5,48.1,30.29,West,279,8.0,12.0,95,0.00,,,0.38,Wunderground v.1.15,2013-04-27 03:51:00,
2013-04-26 22:56:00,49.5,48.1,30.30,ENE,75,4.0,12.0,95,0.00,,,0.38,Wunderground v.1.15,2013-04-27 03:56:00,
2013-04-26 23:01:00,49.6,48.2,30.32,East,86,3.0,7.0,95,0.00,,,0.38,Wunderground v.1.15,2013-04-27 04:01:00,
2013-04-26 23:06:00,49.6,48.2,30.33,ESE,121,3.0,7.0,95,0.00,,,0.38,Wunderground v.1.15,2013-04-27 04:06:00,
2013-04-26 23:11:00,49.6,48.2,30.31,ENE,76,10.0,12.0,95,0.00,,,0.38,Wunderground v.1.15,2013-04-27 04:11:00,
2013-04-26 23:16:00,49.6,48.2,30.31,ENE,78,7.0,13.0,95,0.00,,,0.39,Wunderground v.1.15,2013-04-27 04:16:00,
2013-04-26 23:21:00,49.7,48.3,30.33,East,80,2.0,8.0,95,0.08,,,0.40,Wunderground v.1.15,2013-04-27 04:21:00,
2013-04-26 23:26:00,49.7,48.3,30.33,ENE,69,6.0,8.0,95,0.24,,,0.42,Wunderground v.1.15,2013-04-27 04:26:00,
2013-04-26 23:31:00,49.7,48.3,30.33,East,82,2.0,10.0,95,0.32,,,0.45,Wunderground v.1.15,2013-04-27 04:31:00,
2013-04-26 23:36:00,49.6,48.2,30.31,West,279,3.0,10.0,95,0.29,,,0.47,Wunderground v.1.15,2013-04-27 04:36:00,
2013-04-26 23:41:00,49.6,48.2,30.29,ENE,65,10.0,12.0,95,0.18,,,0.48,Wunderground v.1.15,2013-04-27 04:41:00,
2013-04-26 23:46:00,49.6,48.2,30.30,ENE,69,7.0,12.0,95,0.07,,,0.48,Wunderground v.1.15,2013-04-27 04:46:00,
2013-04-26 23:51:00,49.6,48.2,30.30,ENE,78,2.0,9.0,95,0.05,,,0.48,Wunderground v.1.15,2013-04-27 04:51:00,
2013-04-26 23:56:00,49.6,48.2,30.29,East,80,5.0,9.0,95,0.00,,,0.48,Wunderground v.1.15,2013-04-27 04:56:00,